{"data":{"norad_id":63067,"intl_designator":"2025-035R","name":"STARLINK-33628","alt_names":[],"object_type":"PAYLOAD","status":"ACTIVE","operator":null,"country":"US","launch_date":"2025-02-21","launch_site_code":"AFETR","launch_vehicle":null,"mission":null,"orbit_class":"UNKNOWN","rcs_meters":null,"size_class":null,"mass_kg":null,"dimensions":null,"purposes":["comms"],"wikipedia_slug":null,"has_3d_model":false,"image_url":null,"decayed_at":null,"tle_current":{"epoch":"2026-05-25T02:27:27.645120Z","epoch_age_seconds":69493,"freshness":"FRESH","line1":"1 63067U 25035R   26145.10240330  .00015255  00000+0  56250-3 0  9996","line2":"2 63067  42.9994  75.7469 0000793 267.6150  92.4611 15.27593863 71410","mean_motion":15.27593863,"eccentricity":7.93e-5,"inclination_deg":42.9994,"raan_deg":75.7469,"arg_perigee_deg":267.615,"mean_anomaly_deg":92.4611,"bstar":0.0005625,"rev_number":7141,"period_min":94.265893237619,"perigee_km":482.46349677876,"apogee_km":483.55167431003,"semimajor_km":6861.1445855444,"source":"CELESTRAK","updated_at":"2026-05-25T13:38:19.874454Z"}}}